Weather History for K2I0 - February, 2012

Change the Weather History Date:

Saturday, February 11, 2012

  Actual Average Record
Temperature  
Mean Temperature 26 °F -  
Max Temperature 30 °F - - ()
Min Temperature 21 °F - - ()
Degree Days  
Heating Degree Days 40    
Moisture  
Dew Point 13 °F    
Average Humidity 61    
Maximum Humidity 80    
Minimum Humidity 43    
Precipitation  
Precipitation 0.00 in - - ()
Sea Level Pressure  
Sea Level Pressure 30.37 in    
Wind  
Wind Speed 14 mph ()    
Max Wind Speed 24 mph    
Max Gust Speed 30 mph    
Visibility 10.0 miles    
Events Snow    
T = Trace of Precipitation, MM = Missing Value Source: Averaged Metar Reports

Daily Weather History Graph

Daily Weather History Graph

Search for Another Location

Airport or City:

Trip Planner

Search our weather history database for the weather conditions in past years. The results will help you decide how hot, cold, wet, or windy it might be!

Date:

Astronomy

Feb. 11, 2012 Rise Set
Actual Time 6:43 AM CST 5:24 PM CST
Civil Twilight 6:16 AM CST 5:51 PM CST
Nautical Twilight 5:46 AM CST 6:22 PM CST
Astronomical Twilight 5:15 AM CST 6:52 PM CST
Moon 10:04 PM CST (2/11) 8:32 AM CST (2/11)
Length of Visible Light 11h 34m
Length of Day
10h 40m
Waning Gibbous, 82% of the Moon is Illuminated
Feb 11
Waning Gibbous
Feb 14
Last Quarter
Feb 21
New
Feb 29
First Quarter
Mar 8
Full

Hourly Weather History & Observations

Time (CST) Temp. Windchill Dew Point Humidity Pressure Visibility Wind Dir Wind Speed Gust Speed Precip Events Conditions
12:15 AM 30.2 °F 19.8 °F 23.0 °F 75% 30.12 in 10.0 mi NW 13.8 mph 21.9 mph N/A   Overcast
12:35 AM 30.2 °F 19.3 °F 23.0 °F 75% 30.12 in 10.0 mi NW 15.0 mph 23.0 mph N/A   Overcast
12:55 AM 30.2 °F 19.3 °F 23.0 °F 75% 30.12 in 10.0 mi NW 15.0 mph 20.7 mph N/A   Overcast
1:15 AM 30.2 °F 17.8 °F 23.0 °F 75% 30.13 in 10.0 mi NNW 19.6 mph 23.0 mph N/A   Overcast
1:35 AM 28.4 °F 14.1 °F 19.4 °F 69% 30.14 in 10.0 mi NNW 24.2 mph 29.9 mph N/A   Overcast
1:55 AM 26.6 °F 13.4 °F 17.6 °F 69% 30.15 in 10.0 mi NNW 18.4 mph 26.5 mph N/A   Mostly Cloudy
2:15 AM 26.6 °F 14.7 °F 17.6 °F 69% 30.16 in 10.0 mi NNW 15.0 mph 24.2 mph N/A   Mostly Cloudy
2:35 AM 26.6 °F 15.2 °F 17.6 °F 69% 30.17 in 10.0 mi NW 13.8 mph 20.7 mph N/A   Overcast
2:55 AM 26.6 °F 12.4 °F 17.6 °F 69% 30.18 in 10.0 mi NNW 21.9 mph 27.6 mph N/A   Overcast
3:15 AM 26.6 °F 12.4 °F 19.4 °F 74% 30.20 in 10.0 mi North 21.9 mph 29.9 mph N/A   Overcast
3:35 AM 24.8 °F 11.1 °F 17.6 °F 74% 30.21 in 10.0 mi NNW 18.4 mph 25.3 mph N/A   Overcast
3:55 AM 23.0 °F 8.3 °F 17.6 °F 80% 30.22 in 10.0 mi North 19.6 mph 25.3 mph N/A   Overcast
4:15 AM 23.0 °F 8.7 °F 17.6 °F 80% 30.24 in 10.0 mi North 18.4 mph 29.9 mph N/A   Overcast
4:35 AM 23.0 °F 7.6 °F 17.6 °F 80% 30.25 in 10.0 mi NNW 21.9 mph 27.6 mph N/A Snow Light Snow
4:55 AM 23.0 °F 8.3 °F 17.6 °F 80% 30.26 in 10.0 mi NNW 19.6 mph 26.5 mph N/A Snow Light Snow
5:15 AM 23.0 °F 11.1 °F 17.6 °F 80% 30.29 in 10.0 mi NNW 12.7 mph 21.9 mph N/A   Overcast
5:35 AM 23.0 °F 8.7 °F 15.8 °F 74% 30.30 in 10.0 mi NW 18.4 mph 23.0 mph N/A Snow Light Snow
5:55 AM 23.0 °F 10.1 °F 15.8 °F 74% 30.31 in 10.0 mi NNW 15.0 mph 20.7 mph N/A Snow Light Snow
6:15 AM 23.0 °F 9.2 °F 14.0 °F 68% 30.32 in 7.0 mi NNW 17.3 mph 21.9 mph N/A Snow Light Snow
6:35 AM 23.0 °F 9.6 °F 14.0 °F 68% 30.33 in 10.0 mi NNW 16.1 mph - N/A   Overcast
6:55 AM 23.0 °F 7.6 °F 14.0 °F 68% 30.34 in 10.0 mi NNW 21.9 mph 26.5 mph N/A   Overcast
7:15 AM 23.0 °F 8.7 °F 12.2 °F 63% 30.35 in 10.0 mi NNW 18.4 mph 28.8 mph N/A   Overcast
7:35 AM 23.0 °F 10.6 °F 12.2 °F 63% 30.36 in 10.0 mi NNW 13.8 mph - N/A   Overcast
7:55 AM 23.0 °F 8.3 °F 12.2 °F 63% 30.38 in 10.0 mi NNW 19.6 mph 25.3 mph N/A   Overcast
8:35 AM 23.0 °F 9.2 °F 8.6 °F 54% 30.39 in 10.0 mi NW 17.3 mph 25.3 mph N/A   Clear
8:55 AM 23.0 °F 8.0 °F 8.6 °F 54% 30.39 in 10.0 mi NNW 20.7 mph 24.2 mph N/A   Clear
9:15 AM 23.0 °F 8.3 °F 10.4 °F 59% 30.40 in 10.0 mi North 19.6 mph 25.3 mph N/A   Clear
9:35 AM 23.0 °F 10.1 °F 10.4 °F 59% 30.41 in 10.0 mi NNW 15.0 mph 24.2 mph N/A   Scattered Clouds
9:55 AM 24.8 °F 12.9 °F 12.2 °F 59% 30.41 in 10.0 mi NNW 13.8 mph 21.9 mph N/A   Mostly Cloudy
10:15 AM 24.8 °F 11.5 °F 12.2 °F 59% 30.42 in 10.0 mi NNW 17.3 mph 23.0 mph N/A   Scattered Clouds
10:35 AM 24.8 °F 12.9 °F 10.4 °F 54% 30.42 in 10.0 mi NW 13.8 mph 20.7 mph N/A   Scattered Clouds
10:55 AM 24.8 °F 11.1 °F 8.6 °F 50% 30.42 in 10.0 mi NNW 18.4 mph 26.5 mph N/A   Clear
11:15 AM 26.6 °F 13.8 °F 10.4 °F 51% 30.42 in 10.0 mi NNW 17.3 mph 25.3 mph N/A   Clear
11:35 AM 26.6 °F 12.7 °F 10.4 °F 51% 30.42 in 10.0 mi NNW 20.7 mph 25.3 mph N/A   Scattered Clouds
11:55 AM 26.6 °F 15.7 °F 8.6 °F 47% 30.42 in 10.0 mi North 12.7 mph 24.2 mph N/A   Scattered Clouds
12:15 PM 26.6 °F 15.2 °F 10.4 °F 51% 30.42 in 10.0 mi NNW 13.8 mph 24.2 mph N/A   Mostly Cloudy
12:35 PM 26.6 °F 15.7 °F 10.4 °F 51% 30.42 in 10.0 mi NNW 12.7 mph 19.6 mph N/A   Mostly Cloudy
12:55 PM 26.6 °F 15.7 °F 8.6 °F 47% 30.41 in 10.0 mi NW 12.7 mph 23.0 mph N/A   Scattered Clouds
1:15 PM 28.4 °F 15.4 °F 8.6 °F 43% 30.41 in 10.0 mi NNW 19.6 mph 25.3 mph N/A   Scattered Clouds
1:35 PM 26.6 °F 13.4 °F 10.4 °F 51% 30.41 in 10.0 mi NNW 18.4 mph 24.2 mph N/A   Mostly Cloudy
1:55 PM 26.6 °F 15.7 °F 10.4 °F 51% 30.41 in 10.0 mi NNW 12.7 mph 26.5 mph N/A   Mostly Cloudy
2:15 PM 28.4 °F 15.8 °F 8.6 °F 43% 30.41 in 10.0 mi NNW 18.4 mph 25.3 mph N/A   Scattered Clouds
2:35 PM 28.4 °F 16.2 °F 10.4 °F 47% 30.42 in 10.0 mi NNW 17.3 mph 25.3 mph N/A   Clear
2:55 PM 26.6 °F 16.2 °F 8.6 °F 47% 30.43 in 10.0 mi NW 11.5 mph 23.0 mph N/A   Scattered Clouds
3:15 PM 26.6 °F 13.8 °F 10.4 °F 51% 30.43 in 10.0 mi NW 17.3 mph 21.9 mph N/A   Scattered Clouds
3:35 PM 26.6 °F 14.7 °F 10.4 °F 51% 30.44 in 10.0 mi NNW 15.0 mph 21.9 mph N/A   Scattered Clouds
3:55 PM 26.6 °F 13.8 °F 10.4 °F 51% 30.44 in 10.0 mi NNW 17.3 mph 23.0 mph N/A   Scattered Clouds
4:15 PM 28.4 °F 16.2 °F 10.4 °F 47% 30.44 in 10.0 mi NNW 17.3 mph 25.3 mph N/A   Scattered Clouds
5:15 PM 26.6 °F 16.2 °F 8.6 °F 47% 30.46 in 10.0 mi NW 11.5 mph 18.4 mph N/A   Scattered Clouds
5:35 PM 26.6 °F 17.5 °F 8.6 °F 47% 30.46 in 10.0 mi NNW 9.2 mph - N/A   Scattered Clouds
5:55 PM 24.8 °F 16.1 °F 10.4 °F 54% 30.47 in 10.0 mi NW 8.1 mph - N/A   Clear
6:55 PM 23.0 °F 13.9 °F 10.4 °F 59% 30.48 in 10.0 mi WNW 8.1 mph - N/A   Clear
7:15 PM 23.0 °F 13.9 °F 8.6 °F 54% 30.48 in 10.0 mi WNW 8.1 mph - N/A   Clear
7:35 PM 23.0 °F 14.7 °F 10.4 °F 59% 30.49 in 10.0 mi NW 6.9 mph - N/A   Clear
7:55 PM 23.0 °F 13.9 °F 10.4 °F 59% 30.49 in 10.0 mi NW 8.1 mph - N/A   Clear
8:15 PM 23.0 °F 17.0 °F 10.4 °F 59% 30.48 in 10.0 mi WNW 4.6 mph - N/A   Clear
8:35 PM 21.2 °F 13.6 °F 8.6 °F 58% 30.48 in 10.0 mi West 5.8 mph - N/A   Clear
8:55 PM 21.2 °F 14.9 °F 8.6 °F 58% 30.49 in 10.0 mi WNW 4.6 mph - N/A   Clear
9:15 PM 21.2 °F 13.6 °F 8.6 °F 58% 30.48 in 10.0 mi WNW 5.8 mph - N/A   Clear
9:35 PM 21.2 °F 13.6 °F 10.4 °F 63% 30.49 in 10.0 mi WNW 5.8 mph - N/A   Clear
9:55 PM 21.2 °F 12.6 °F 10.4 °F 63% 30.49 in 10.0 mi West 6.9 mph - N/A   Clear
10:15 PM 21.2 °F 12.6 °F 10.4 °F 63% 30.49 in 10.0 mi WNW 6.9 mph - N/A   Clear
10:35 PM 21.2 °F 13.6 °F 10.4 °F 63% 30.48 in 10.0 mi WNW 5.8 mph - N/A   Clear
10:55 PM 21.2 °F 10.9 °F 10.4 °F 63% 30.48 in 10.0 mi WNW 9.2 mph - N/A   Clear
11:15 PM 21.2 °F 10.9 °F 10.4 °F 63% 30.48 in 10.0 mi WNW 9.2 mph - N/A   Clear
11:35 PM 23.0 °F 15.8 °F 10.4 °F 59% 30.49 in 10.0 mi NW 5.8 mph - N/A   Clear
11:55 PM 21.2 °F 14.9 °F 8.6 °F 58% 30.48 in 10.0 mi NW 4.6 mph - N/A   Clear